Voltar ao catálogo

CENTISPACE-2 S1

AtivoNavegaçãoLEO
NORAD 68350·PAYLOAD·🇨🇳 China

Lançado Mar 22, 2026 de Yellow Sea Launch Area

Loading…

Próximas Passagens (próximas 24 horas)

TLE

AtualizadoSource: Space-Track

Época: Sep 14, 2026, 20:28 UTC

1 68350U 26060A   26257.85301393 -.00000117  00000-0  17467-4 0  9999
2 68350  54.9843  47.7557 0008850 269.2276  90.7686 14.22596012 25721

Acompanhe CENTISPACE-2 S1 em tempo real com AllMySat

Download on the App Store